Location: Ferques
(50.8300°N, 1.7599°E)
Time: 01:10:54
(UTC+00:00)

Cosmos 836 Rocket - Pass Details

Date: 19 May 2025
Orbit: 754 x 773 km, 74.1° (Epoch: 18 June)

Event Time Altitude Azimuth Distance (km) Brightness Sun altitude
Exits shadow 21:27:43 - 192° (SSW) 2,560 6.8 -12.6°
Reaches altitude 10° 21:28:26 10° 191° (S) 2,281 6.5 -12.7°
Maximum altitude 21:33:33 67° 110° (ESE) 821 4.5 -13.1°
Drops below altitude 10° 21:38:42 10° 29° (NNE) 2,291 7.4 -13.6°
Sets 21:41:05 0° 27° (NNE) 3,220 8.2 -13.8°
